Temp
8 8 8 8 8 8 8 8 8 8 8 8 8 8 8 8 8 8 8 8 8 8 8 8 8 9 8 8 8 8 9 10 12 10 12 18 21 21 21 21 21 22 21 21 20 20 21 21 21 21 21 21 22 22 23 24 25 25 24 23 22 22 23 24 25 26 26 27 28 28 29 30 30 30 30 28 27 25 24 24 23 24 23 23 22 21 20 19
8 8 8 8 8 8 8 8 8 8 8 8 8 8 8 8 8 8 8 8 8 8 9 8 8 8 8 9 9 9 9 10 10 10 15 22 22 20 21 21 21 21 21 21 20 20 20 21 21 21 21 22 22 23 23 24 25 24 24 23 22 23 24 25 26 26 27 27 28 28 28 29 29 29 30 28 26 25 24 23 22 22 22 21 21 20 19 18
7 7 8 8 8 8 8 8 8 8 8 8 8 8 8 8 8 8 8 8 8 9 8 8 8 8 8 9 9 10 9 9 12 16 21 24 22 21 21 21 21 21 21 21 21 21 20 21 21 21 21 22 22 23 24 24 25 24 24 23 23 24 25 26 26 27 28 28 28 29 28 29 29 29 30 28 26 26 24 22 22 21 21 20 20 20 19 19
7 7 7 7 8 8 7 8 8 8 8 8 8 8 8 8 8 8 8 8 8 8 8 8 8 8 9 9 10 10 9 11 18 22 23 24 23 23 21 21 21 20 21 21 21 21 21 21 21 21 21 21 22 23 23 24 25 24 24 24 24 25 25 26 27 27 28 28 28 29 29 29 29 29 29 29 27 25 24 23 22 21 21 20 20 20 19 19
7 7 7 7 8 7 7 8 8 8 8 8 8 8 8 8 8 8 8 8 8 8 8 8 8 8 8 9 10 9 10 17 22 22 23 23 24 23 22 21 20 20 21 21 21 21 21 21 21 21 21 22 22 23 23 24 25 24 25 25 25 25 25 26 27 27 27 28 28 28 28 28 29 29 29 29 28 27 25 24 23 22 21 21 20 20 20 19
7 7 7 7 8 7 7 7 7 8 8 8 8 8 8 8 8 8 8 8 8 8 8 8 8 8 9 10 11 9 13 20 21 22 23 23 23 23 22 21 20 20 21 21 21 21 21 21 21 21 22 22 22 23 24 25 25 24 25 25 25 25 25 26 27 27 28 28 28 28 28 28 29 29 29 29 28 28 26 24 23 22 22 21 20 20 20 20
7 7 7 7 8 7 7 7 8 8 8 8 8 8 8 8 8 8 8 8 8 8 8 8 8 8 10 11 11 10 13 19 21 22 23 23 23 23 22 21 20 20 20 20 20 20 21 21 21 21 22 23 23 24 24 25 25 24 24 25 26 26 25 26 26 27 28 27 28 29 28 29 29 28 28 27 26 26 25 23 23 22 22 21 21 20 20 20
7 7 7 7 7 7 7 7 8 8 9 9 8 8 8 8 8 8 8 8 8 8 8 8 8 9 10 10 12 13 15 19 23 23 22 23 23 22 21 21 20 20 20 20 20 20 21 21 21 21 22 23 24 24 25 24 25 24 24 25 26 26 26 27 26 27 28 27 28 28 28 28 29 28 27 25 24 24 24 23 22 22 22 21 21 20 19 19
7 7 7 7 7 7 7 7 8 10 12 11 10 9 8 8 8 8 8 8 8 8 8 8 9 9 10 9 12 17 20 22 23 23 23 23 22 22 21 20 20 20 20 21 21 21 21 21 22 22 22 24 24 24 25 24 24 25 25 25 26 26 27 27 27 27 28 27 28 28 28 28 28 28 25 23 23 23 23 23 22 22 21 21 20 19 19 19
7 7 7 7 7 7 7 8 10 13 13 12 11 10 9 9 9 9 8 8 8 8 8 8 9 10 10 10 13 19 22 23 23 23 23 22 22 21 20 21 21 20 21 21 21 21 21 22 22 23 23 24 24 24 25 24 25 26 26 26 26 26 27 27 27 28 27 27 28 28 28 29 28 27 24 23 24 23 23 22 22 21 21 20 20 19 18 18
7 7 7 7 7 7 7 9 12 14 14 13 12 11 11 10 10 10 9 8 8 8 8 8 9 10 10 11 15 20 22 23 23 23 23 22 22 22 21 21 21 21 21 21 21 21 21 22 22 23 23 24 24 24 24 25 25 25 25 25 26 26 27 27 27 27 27 28 28 28 28 28 28 27 24 23 23 23 22 22 21 21 20 19 19 18 18 17
7 7 7 7 7 7 8 11 14 14 14 13 13 13 13 12 12 11 10 10 9 9 9 8 9 9 9 11 15 20 23 23 23 23 23 23 22 23 22 22 22 22 22 21 21 22 22 22 22 22 23 24 24 24 25 25 25 25 25 25 26 26 26 27 27 27 27 27 28 28 26 26 27 26 24 23 23 22 22 21 20 20 19 19 18 18 17 17
7 7 7 7 7 9 11 14 14 14 14 14 14 14 14 14 13 12 11 11 10 10 9 9 9 9 10 15 19 22 23 22 22 23 22 23 23 23 23 22 22 22 23 22 23 24 23 23 23 22 24 25 24 24 25 25 25 25 26 25 25 25 25 27 27 27 27 27 28 27 24 25 27 25 23 23 22 22 21 21 20 19 19 18 18 18 17 15
7 7 7 8 10 12 14 15 15 15 15 15 15 15 15 14 14 13 12 11 11 11 10 10 10 9 11 17 22 23 23 22 22 22 22 23 23 23 23 23 22 22 23 23 23 24 24 24 24 24 25 25 24 25 25 24 25 25 25 25 24 23 24 26 27 27 27 26 28 27 23 24 25 23 23 23 22 22 21 20 20 19 19 18 18 17 16 15
8 8 9 11 13 14 14 15 16 16 16 16 16 16 15 15 14 14 13 12 11 11 10 10 10 10 12 17 21 23 23 22 21 22 23 23 23 23 23 23 23 23 23 23 24 24 24 25 24 24 25 25 25 24 23 23 24 24 23 23 23 22 23 25 26 26 27 26 28 27 23 24 24 23 24 24 23 22 21 20 20 19 19 18 17 17 16 16
10 10 11 12 13 14 15 16 16 17 17 17 16 16 16 15 14 14 13 12 12 11 10 11 11 11 14 19 21 23 23 22 22 23 23 23 24 23 23 23 23 23 24 24 25 25 25 25 24 25 24 24 24 23 22 22 22 23 23 21 22 22 22 24 26 26 27 26 27 26 24 25 25 23 24 24 23 22 21 20 19 19 18 18 18 17 17 16
11 11 12 13 13 14 15 16 16 16 17 17 17 16 15 14 14 13 13 12 12 12 11 12 12 12 16 20 22 22 23 23 24 24 23 24 24 24 23 23 23 24 24 24 25 24 24 24 24 24 24 23 23 22 22 21 21 22 22 21 22 22 22 23 25 26 26 26 26 26 25 26 26 23 24 24 23 22 21 20 19 19 18 18 18 17 17 17
12 12 13 13 14 15 15 16 16 16 17 17 17 16 15 14 12 12 12 11 12 11 11 12 12 14 18 21 21 22 23 24 24 24 24 24 24 24 23 23 24 24 23 24 24 24 24 24 23 23 23 22 23 22 21 20 21 21 21 22 22 22 22 22 24 26 26 25 26 25 25 26 26 23 24 24 23 22 21 20 19 19 18 18 18 18 18 18
13 13 13 14 14 15 16 16 16 16 16 17 16 16 15 13 12 12 12 11 13 15 17 15 15 19 21 21 22 22 24 25 24 24 24 24 24 24 24 24 24 24 23 22 23 23 23 23 22 22 22 22 22 22 22 22 22 22 22 22 22 22 22 23 24 25 26 25 25 25 25 26 26 24 24 24 23 22 21 20 20 19 19 18 18 18 18 18
13 13 14 14 14 15 15 15 15 15 16 16 16 15 15 15 15 15 13 12 14 18 21 19 17 20 21 21 23 23 24 25 24 24 24 24 24 23 23 24 24 23 23 22 22 23 23 22 21 22 22 23 23 22 22 23 22 22 23 22 22 22 22 24 25 25 27 26 24 25 25 26 26 25 24 23 22 22 21 20 20 19 19 19 19 18 18 18
13 13 14 14 14 15 15 15 14 14 14 15 15 16 17 18 18 18 17 15 16 17 19 19 19 20 21 22 23 23 24 24 24 24 24 25 24 23 23 23 23 22 22 22 22 23 22 22 21 22 23 23 24 22 22 22 23 24 23 23 23 22 23 25 25 25 26 26 24 24 26 26 26 25 24 23 22 21 21 20 20 20 19 19 19 19 18 19
13 13 13 14 14 15 15 15 14 14 14 14 14 15 17 19 19 20 19 18 18 18 18 19 19 19 20 21 22 22 22 23 24 24 24 25 24 23 23 23 23 22 22 22 22 22 21 21 22 23 22 21 22 22 22 23 25 24 23 22 22 22 24 25 26 25 26 26 25 24 25 25 25 24 23 23 22 22 21 21 20 20 20 19 19 19 19 19
13 13 14 14 14 15 15 15 14 14 14 14 13 14 17 20 20 20 19 19 19 20 19 19 19 19 20 21 22 22 21 22 23 23 24 24 23 24 23 23 22 22 22 22 22 21 21 22 23 23 21 20 21 22 22 24 24 24 23 22 21 22 23 23 25 26 25 25 25 25 25 25 24 24 24 22 22 22 21 21 21 20 20 20 19 19 19 19
13 14 14 14 14 15 15 15 14 14 15 14 14 17 20 21 20 20 19 19 19 20 20 20 20 20 21 22 23 23 22 23 24 24 24 24 23 23 23 23 22 22 22 22 22 21 21 23 24 23 21 21 22 23 24 24 23 23 23 22 22 23 23 23 24 25 25 25 25 25 24 23 24 25 25 23 22 22 21 21 21 20 21 20 20 20 19 19
13 14 14 14 14 15 15 15 14 14 14 14 16 20 21 20 21 20 18 18 18 19 21 21 21 22 23 24 24 24 23 23 24 24 24 24 24 23 23 23 22 22 22 22 21 21 22 23 23 23 22 21 23 24 24 24 23 22 23 23 23 23 23 24 24 23 23 23 24 24 21 22 24 25 25 24 22 22 21 21 21 20 20 20 20 20 20 20
13 13 14 14 14 15 16 15 15 14 15 16 19 21 20 20 21 20 19 17 17 19 21 22 22 23 24 24 24 24 23 23 25 25 25 25 25 24 23 23 23 22 22 23 22 22 23 23 23 24 23 22 24 24 24 24 22 21 24 24 24 24 23 23 23 22 21 21 23 23 21 21 22 24 26 24 22 22 21 21 21 20 20 20 20 20 20 20
13 13 14 14 14 14 14 15 15 15 17 19 20 20 20 21 21 21 19 16 17 20 21 21 22 23 24 24 25 24 22 23 25 25 25 25 25 25 24 23 23 23 24 23 22 22 24 24 23 23 24 23 23 23 23 24 22 22 24 25 23 24 24 23 23 22 21 22 22 23 22 21 21 23 24 23 23 23 22 22 21 21 20 20 20 20 20 20
13 13 13 14 14 13 13 13 13 14 18 20 19 20 20 20 21 21 18 16 20 22 22 22 23 24 24 24 25 24 24 24 24 24 25 25 25 25 23 23 23 23 24 23 21 22 23 23 23 24 24 24 24 24 24 23 23 23 25 25 24 24 24 24 23 22 21 22 21 21 22 21 20 23 24 23 24 24 24 24 23 21 21 20 20 20 20 20
13 13 13 14 15 14 13 12 12 15 19 19 19 20 20 20 21 20 17 17 21 23 23 23 23 23 24 24 24 24 25 25 24 24 25 25 25 25 23 23 23 23 24 23 22 23 24 24 25 25 24 24 25 25 25 24 24 24 24 25 25 24 24 24 23 22 21 21 21 21 21 21 20 22 23 24 24 24 24 24 23 21 21 21 21 20 20 20
14 14 14 13 14 14 13 12 14 18 19 18 19 20 20 20 20 18 16 18 21 22 23 22 22 23 24 23 23 24 24 24 25 25 24 24 25 25 24 24 24 24 23 23 23 23 24 24 24 25 25 25 25 25 25 25 25 24 24 24 24 23 23 23 22 21 21 20 20 21 21 21 20 21 23 23 23 24 24 23 22 21 20 21 21 20 21 20
14 14 14 13 14 14 13 14 18 19 18 18 19 20 20 19 18 16 17 20 21 21 23 22 22 23 23 23 23 23 24 24 25 24 23 24 24 23 24 23 23 23 22 22 23 23 24 24 24 25 26 25 25 25 25 25 24 24 24 23 23 22 22 22 21 21 20 20 20 21 21 21 20 21 23 23 22 23 24 23 22 21 20 21 21 21 21 21
15 15 15 14 14 14 14 17 19 19 18 19 18 19 19 17 16 16 18 20 21 21 22 22 23 23 23 23 23 23 23 23 24 24 23 23 23 22 23 23 23 22 21 21 22 22 23 24 24 25 25 25 25 24 24 24 24 24 23 22 21 20 20 20 20 20 20 20 20 20 21 21 20 21 23 22 22 22 22 22 22 21 21 21 21 21 21 21
15 15 15 16 16 15 16 18 19 18 18 18 18 18 18 16 16 17 18 20 20 21 22 22 23 24 23 23 23 23 23 23 24 24 23 23 22 22 22 23 23 22 21 21 21 21 22 23 24 24 25 25 25 24 22 23 24 23 22 21 21 20 20 19 19 19 20 20 20 20 21 21 20 22 23 22 21 21 21 21 21 21 20 20 20 20 20 20
15 15 15 16 16 16 18 18 18 18 17 17 18 17 16 16 17 18 18 19 21 21 22 22 22 23 23 22 23 24 23 23 24 24 23 23 22 22 22 22 23 23 22 21 20 21 21 21 23 24 24 25 25 24 24 23 24 23 23 22 21 20 20 20 20 20 20 20 20 20 21 20 20 22 22 22 21 20 20 20 20 20 19 20 20 20 20 19
15 15 15 15 16 17 18 18 18 17 16 16 17 16 16 16 17 17 18 19 21 21 22 22 22 22 22 22 23 24 23 23 24 23 23 23 22 22 22 22 22 22 22 21 20 21 20 21 23 24 24 25 25 25 25 24 23 22 22 21 21 21 21 20 19 20 20 20 20 20 20 20 21 22 22 22 22 20 20 19 19 19 19 19 19 19 19 18
15 15 15 15 16 18 19 18 18 17 16 16 16 15 16 17 18 18 19 20 21 21 21 21 21 21 21 21 22 23 24 23 23 23 22 22 22 22 23 23 23 23 22 21 21 21 20 21 23 24 24 25 25 25 25 24 23 22 21 21 21 21 22 21 19 19 19 20 20 20 20 20 21 22 22 22 22 20 19 19 19 19 18 18 18 18 18 18
14 14 14 15 17 18 19 19 18 16 16 16 15 15 16 17 18 19 20 20 21 21 20 19 21 21 20 21 21 22 23 23 23 22 21 22 22 21 22 23 24 24 23 23 22 21 21 21 22 23 23 24 24 25 25 25 24 23 22 22 22 21 21 21 20 19 19 19 20 19 20 20 20 21 21 21 21 20 19 18 18 18 18 18 18 18 18 17
11 11 12 15 18 19 18 18 17 16 16 16 15 15 16 17 19 19 20 20 20 20 20 19 20 22 20 20 20 21 21 21 22 22 21 21 21 20 21 23 24 23 23 24 23 21 21 21 21 23 23 23 24 24 24 24 24 24 23 23 22 21 21 21 20 19 19 19 19 19 19 19 19 20 20 19 20 19 19 18 17 17 17 17 17 17 17 16
9 11 14 18 19 19 18 17 17 16 16 15 14 15 17 18 19 20 20 20 20 20 19 19 21 21 21 21 20 20 21 21 21 22 21 20 20 20 21 22 23 23 23 24 23 22 21 20 21 22 22 23 23 23 22 22 23 24 23 23 22 21 21 20 20 20 19 19 19 19 19 19 20 20 19 19 19 20 19 18 18 17 17 17 17 16 16 16
10 13 16 18 18 18 18 17 16 16 15 15 15 16 17 18 18 20 20 20 20 20 20 20 21 21 21 22 21 21 22 22 22 22 20 19 20 20 21 22 23 23 23 23 22 21 20 20 20 21 21 22 22 21 20 21 21 22 22 22 22 21 20 20 20 19 20 19 18 18 18 19 20 20 19 19 19 19 19 18 18 17 17 17 16 16 16 16
10 14 17 18 18 17 17 16 16 16 15 15 16 16 17 18 18 19 20 20 20 21 21 22 22 21 21 22 22 22 22 22 22 21 20 20 20 20 21 22 22 22 23 22 21 20 20 20 20 20 21 21 21 21 21 21 21 21 21 21 21 21 20 20 20 19 20 20 19 19 19 19 20 19 19 19 19 19 19 18 18 17 17 16 16 16 16 16
11 14 17 18 18 17 17 16 15 15 16 16 16 17 18 18 18 19 19 20 20 21 22 22 22 22 22 22 22 22 22 22 22 21 20 20 20 21 21 22 22 22 21 20 19 20 20 20 20 20 20 20 20 20 21 21 22 22 21 21 20 20 20 20 20 19 19 19 18 19 19 19 20 19 18 19 19 19 18 18 17 17 16 16 16 16 16 17
12 14 16 18 17 18 17 15 14 15 16 17 17 18 18 18 18 19 19 20 21 22 22 22 21 21 22 21 22 21 21 21 21 21 20 20 20 21 22 22 22 21 20 20 20 20 19 19 20 19 19 20 20 21 21 21 21 21 20 20 20 20 20 20 20 19 20 19 18 18 18 19 20 18 17 18 18 18 18 17 17 16 16 16 16 16 16 17
11 11 14 16 17 18 16 14 14 15 16 17 17 18 18 19 19 19 19 20 20 21 21 20 20 21 21 21 21 21 20 21 21 20 20 20 20 21 22 22 22 21 20 20 20 20 20 19 19 19 19 19 20 20 20 20 20 20 19 19 20 20 20 20 19 19 19 19 19 19 18 18 19 18 17 18 18 17 17 17 17 16 16 16 16 16 16 17
11 11 13 14 15 16 14 13 15 16 16 17 17 17 18 18 19 20 20 19 19 19 19 18 19 19 19 20 20 20 19 20 20 18 19 20 20 21 21 21 21 20 20 20 20 20 19 18 19 19 18 18 18 18 18 18 18 19 19 19 19 19 20 19 19 19 19 18 18 19 18 18 19 18 18 18 18 18 17 17 17 16 17 17 17 16 16 16
12 12 12 12 12 13 13 13 15 16 15 15 16 17 17 17 19 20 19 18 18 18 17 17 17 18 18 19 19 17 17 18 18 17 17 18 19 20 20 20 20 20 20 21 21 20 19 18 18 19 18 18 18 18 18 18 18 18 19 19 18 18 19 19 18 19 18 18 18 19 18 19 19 18 18 18 18 18 18 17 17 17 17 17 17 17 17 16
12 11 10 10 11 11 12 13 14 14 15 15 16 17 17 16 17 18 19 18 17 18 17 16 16 16 16 17 17 15 15 16 16 16 16 16 18 19 19 19 20 20 20 20 20 20 19 18 17 18 18 17 17 17 18 18 18 18 18 18 17 18 18 19 18 18 17 18 18 17 17 18 17 16 17 17 17 18 17 17 17 17 17 17 17 17 16 16
10 11 10 10 10 10 10 12 13 13 14 15 15 15 15 15 16 16 17 17 17 17 16 15 14 14 14 15 15 13 14 14 15 15 15 15 17 18 19 19 19 20 20 20 19 19 18 18 17 17 17 17 17 17 17 17 17 17 17 17 17 18 18 18 17 17 17 18 17 15 15 15 14 14 15 15 15 16 16 16 17 17 17 16 16 15 15 16
9 9 9 10 10 9 10 12 13 13 14 15 15 14 14 14 14 14 15 16 15 15 15 14 13 13 13 13 13 12 12 13 13 13 14 14 15 17 17 18 18 19 19 19 18 17 17 17 17 17 17 16 17 17 16 16 16 16 16 16 16 17 17 17 16 16 16 16 14 14 14 14 13 13 14 15 14 14 15 15 16 16 16 16 16 16 16 16
8 8 8 8 9 10 11 12 13 13 13 13 14 14 14 13 14 14 14 14 14 14 14 13 12 13 12 12 12 12 12 12 12 12 13 13 14 15 16 16 17 18 18 18 17 17 17 17 16 17 16 16 17 16 16 16 16 16 15 14 15 16 16 16 15 15 15 14 13 14 14 14 13 13 13 14 14 14 14 14 14 14 14 15 16 16 16 16
7 8 8 8 9 11 11 12 12 11 11 12 13 14 14 13 14 14 14 14 14 13 13 13 12 12 12 12 12 12 12 13 13 13 13 13 14 15 16 16 17 17 17 17 17 17 17 16 16 16 16 15 16 16 16 16 16 16 15 14 14 15 14 14 14 14 15 14 14 15 14 13 13 13 13 13 13 13 13 13 13 12 13 13 14 14 15 15
7 8 8 8 10 10 10 11 11 11 10 11 12 13 13 13 14 14 13 13 14 14 13 13 12 12 12 12 12 12 13 13 13 14 14 14 14 15 16 16 16 16 17 17 17 17 17 17 16 16 15 15 15 15 16 16 15 15 14 13 13 14 13 12 12 11 12 13 14 15 13 12 12 12 12 12 12 12 12 12 12 12 12 12 12 12 12 12
Height
799 798 797 796 795 795 794 793 792 791 790 789 788 788 787 786 785 785 784 783 783 782 781 781 780 779 778 777 776 775 773 771 768 769 767 757 753 755 756 757 758 758 759 760 761 762 762 762 762 762 765 765 766 765 763 762 762 767 775 784 787 784 778 769 765 766 765 762 755 749 747 747 747 740 735 737 741 745 749 749 747 745 744 746 749 753 758 762
799 798 796 795 794 793 793 792 791 790 789 788 788 787 786 785 785 784 783 783 782 781 781 780 779 778 777 776 775 774 772 769 768 766 758 752 752 754 755 756 757 758 758 759 760 761 762 762 762 763 766 767 766 764 764 762 761 768 775 781 781 776 768 760 761 761 759 760 754 750 748 746 747 744 737 744 752 749 754 757 753 753 753 753 755 758 761 763
797 796 795 794 793 792 791 790 790 789 788 788 787 786 786 785 784 783 783 782 782 781 780 779 778 777 776 776 774 773 771 769 766 759 751 749 751 752 753 755 755 757 758 759 759 760 761 762 763 765 767 768 766 764 765 763 762 766 771 779 774 766 762 756 757 757 755 755 753 750 747 745 744 742 739 747 755 751 754 758 757 760 760 759 760 761 764 766
796 795 794 793 792 791 790 789 789 788 787 787 786 786 785 784 784 783 782 782 781 780 779 778 777 776 776 775 774 773 772 770 761 751 748 748 749 750 752 753 754 756 757 758 759 760 761 762 763 765 768 770 766 764 766 764 763 764 766 772 766 760 760 755 753 753 751 751 751 749 748 747 742 740 742 746 755 757 754 750 751 757 757 758 761 762 764 767
795 794 793 792 791 790 789 788 787 787 786 785 785 784 784 784 783 782 782 781 780 779 778 778 777 776 775 774 774 773 773 769 756 748 749 749 748 750 751 752 754 755 757 758 758 759 760 762 764 766 768 769 767 766 766 760 760 764 763 762 758 757 759 752 749 750 749 749 749 749 749 748 742 741 743 744 752 753 747 744 743 747 749 752 757 761 764 767
794 793 792 791 790 789 788 787 786 785 785 784 784 783 783 782 782 781 781 780 779 779 778 777 776 775 774 773 773 773 772 766 753 748 749 748 749 749 750 752 753 755 756 757 757 759 760 761 765 768 767 766 767 766 763 758 758 766 763 758 755 755 756 750 747 747 747 749 750 748 746 744 745 746 743 743 746 742 738 740 742 744 745 748 754 760 764 768
792 791 790 790 789 787 786 786 785 784 783 782 782 782 782 781 780 780 779 779 778 777 777 776 775 774 773 773 772 773 772 761 749 748 748 748 749 749 750 751 753 755 755 756 757 758 759 762 765 766 766 765 764 762 759 757 758 765 764 757 753 751 752 748 745 746 746 748 747 744 743 744 748 748 744 744 743 739 739 741 743 746 748 751 756 761 765 768
791 790 789 788 787 786 785 784 783 783 782 781 781 780 780 780 779 779 778 777 776 776 776 775 774 773 773 772 771 771 769 756 746 747 747 748 748 748 750 750 752 754 754 755 755 757 759 761 763 763 766 763 760 759 757 758 759 761 761 755 750 748 747 743 744 745 744 745 743 742 745 745 745 744 746 748 745 741 741 744 747 749 752 755 759 763 766 768
790 789 788 787 785 784 783 783 782 781 780 780 779 779 779 778 777 777 776 776 775 775 774 773 774 772 772 772 771 768 758 748 745 746 746 747 747 747 749 749 751 752 753 754 754 757 758 759 759 759 763 760 757 757 755 761 762 756 754 751 749 747 744 741 742 742 742 742 741 744 746 743 740 742 751 751 745 743 744 748 750 751 754 758 761 764 766 768
789 787 787 785 783 783 782 781 781 779 779 778 778 778 777 776 776 775 775 774 773 773 772 773 772 772 772 771 771 765 749 744 746 745 745 746 746 747 748 748 750 751 751 752 753 755 755 755 755 755 759 758 756 756 755 759 757 750 750 749 747 746 742 740 741 739 741 740 739 744 745 742 738 743 757 754 744 743 747 752 753 753 757 759 762 764 766 767
788 786 785 783 782 781 780 780 779 778 778 777 776 776 776 775 774 774 773 773 772 772 771 772 772 772 771 770 770 761 746 744 746 745 745 745 745 746 746 747 748 749 750 751 752 752 752 752 752 755 759 756 755 756 754 752 751 748 749 749 745 743 741 739 740 739 740 740 738 740 742 741 739 744 755 753 746 745 748 755 756 756 759 760 763 765 766 767
787 785 783 782 781 780 779 779 777 777 776 776 775 775 774 774 773 772 772 771 771 771 771 771 772 771 771 771 766 754 744 745 746 745 746 744 745 745 745 747 747 748 749 750 750 750 751 751 752 759 758 753 756 758 753 747 749 747 746 751 747 743 743 739 738 738 739 741 735 738 747 748 744 747 749 749 749 747 749 755 757 758 760 762 763 765 767 768
786 784 782 781 779 778 778 777 776 776 775 775 774 773 773 772 772 771 770 770 770 770 770 770 771 771 771 765 753 745 744 746 746 745 745 744 745 745 746 747 747 748 748 749 749 748 750 749 752 755 751 752 757 755 748 745 747 747 745 750 750 751 748 738 737 737 738 740 733 741 760 756 747 749 748 747 749 749 753 757 758 760 761 763 764 765 768 772
785 783 781 779 778 777 776 775 775 774 774 774 773 772 772 771 771 770 770 769 769 770 770 770 770 771 771 759 743 742 743 743 746 745 745 745 745 746 746 747 747 748 748 748 747 747 748 747 748 749 747 749 752 749 749 750 749 750 750 751 756 762 752 736 736 739 739 738 731 744 764 756 749 752 747 745 747 749 755 758 759 761 761 763 764 766 770 772
784 782 780 778 777 776 775 774 774 773 773 772 771 771 771 770 770 769 769 768 769 769 769 770 770 770 770 757 742 741 742 741 743 743 744 744 744 745 745 746 747 747 748 748 747 746 746 745 747 749 749 747 748 754 759 758 753 753 760 763 763 765 756 741 737 739 741 738 732 745 760 753 749 752 745 744 746 748 755 759 759 762 762 764 765 766 770 771
783 781 779 777 776 775 774 773 773 772 772 771 770 770 770 769 769 769 768 767 768 769 769 770 769 770 769 754 741 740 740 740 740 741 743 743 744 744 744 745 746 746 746 746 745 745 744 745 747 748 750 750 754 761 765 767 764 759 764 771 767 765 763 752 738 733 736 738 737 743 753 749 747 748 743 743 746 748 754 758 759 761 762 762 765 766 768 771
783 781 778 777 775 774 773 772 772 771 770 770 769 769 768 768 768 768 767 767 768 768 769 769 769 770 762 746 742 741 738 738 739 741 742 742 743 743 744 745 745 745 745 744 745 744 744 747 749 749 752 755 758 762 771 779 776 768 767 770 767 764 765 758 742 731 731 738 740 741 746 745 743 745 744 744 745 748 753 757 758 759 762 762 763 766 767 769
783 780 778 776 774 773 772 771 771 770 769 769 768 768 767 767 767 767 767 767 768 768 769 769 770 770 757 743 743 740 736 737 738 739 740 741 742 742 744 744 743 744 746 748 747 747 748 749 752 756 758 760 760 765 778 780 773 770 770 769 767 762 762 761 748 732 730 737 740 743 747 744 743 746 746 745 744 746 750 753 757 758 761 763 764 766 767 766
783 780 778 776 774 772 771 770 769 769 768 768 767 766 765 766 766 766 767 768 767 766 763 763 764 760 750 743 740 738 736 736 737 738 739 739 741 742 742 743 743 746 751 755 753 750 751 754 758 763 765 764 762 764 769 767 764 766 767 766 766 764 761 755 743 729 727 736 742 745 747 744 744 747 746 745 745 747 751 754 757 759 759 761 764 766 766 766
782 780 778 775 773 772 770 769 768 768 767 767 766 765 765 765 766 766 767 766 762 756 752 753 754 750 744 740 737 737 737 736 737 737 737 738 739 741 743 743 745 749 753 757 756 751 752 761 766 765 762 759 758 759 760 759 760 761 763 762 761 764 760 746 737 730 724 735 745 744 744 745 744 746 746 748 750 751 754 757 758 759 759 759 762 764 766 765
782 780 777 775 773 771 770 768 767 766 766 766 765 765 764 763 765 764 762 759 753 749 748 746 747 745 741 738 735 736 738 738 737 735 735 736 738 743 745 744 750 755 754 754 755 752 754 765 766 757 755 752 751 756 759 758 756 755 758 760 758 761 757 742 739 735 726 734 746 745 744 744 742 743 745 748 755 755 752 755 757 757 758 758 759 762 764 764
781 779 777 775 772 770 769 768 767 765 765 765 764 765 761 758 759 759 758 757 747 743 745 742 743 742 736 735 735 736 741 742 739 736 734 736 739 744 746 745 752 756 752 753 758 760 764 766 758 749 751 755 754 756 758 754 750 752 757 760 759 758 752 743 737 734 729 734 745 747 745 745 744 742 744 746 751 753 749 747 750 752 756 758 759 760 762 763
781 778 776 774 772 770 768 767 766 765 764 764 763 763 759 755 755 755 757 758 747 738 739 739 741 740 736 735 733 735 743 742 741 737 732 735 740 742 745 747 751 753 753 756 760 766 770 760 747 744 751 757 758 757 757 753 750 753 757 761 763 758 755 752 742 735 734 736 743 744 742 745 747 744 743 744 745 747 748 746 747 749 751 753 755 756 758 759
780 777 776 773 771 770 767 766 765 764 763 762 761 759 756 754 753 754 755 757 751 738 732 732 733 734 732 730 729 734 739 737 737 735 730 734 740 741 744 746 752 755 754 755 759 764 763 749 740 744 751 755 758 756 753 753 754 754 754 758 760 756 755 754 749 742 739 740 739 741 746 747 746 746 745 745 745 747 749 749 750 750 749 750 753 755 755 754
778 777 775 772 771 768 767 766 764 764 763 761 759 756 755 753 751 753 755 760 758 741 730 728 729 728 723 725 728 729 733 733 731 729 727 730 736 740 743 743 749 756 754 753 758 762 756 744 741 746 749 752 753 752 749 750 757 757 752 751 752 753 754 752 751 750 752 754 745 746 763 761 746 745 746 745 749 750 750 750 750 751 752 753 754 756 756 755
778 776 773 772 770 767 766 764 762 764 762 759 757 755 755 753 752 752 756 768 766 745 733 731 729 726 721 724 725 725 736 735 723 722 724 726 729 734 743 744 744 750 750 750 754 755 747 740 740 745 747 750 749 749 747 747 758 762 749 743 747 750 753 752 752 756 763 764 752 749 767 770 754 745 744 746 750 751 752 752 750 751 753 753 754 756 756 756
777 775 773 771 769 767 766 763 763 763 760 757 755 756 755 752 753 750 758 780 770 741 734 733 728 724 721 721 720 728 743 733 720 722 721 724 726 729 741 746 744 746 743 747 757 752 742 740 742 743 744 748 750 750 747 745 756 759 744 740 748 749 750 752 752 757 761 758 755 753 759 770 766 750 746 749 750 751 752 752 752 753 752 753 754 755 754 754
775 773 772 770 768 768 766 764 764 761 759 757 755 756 754 751 752 750 767 787 762 730 730 730 724 721 719 719 719 727 731 724 728 728 716 719 726 729 741 743 743 746 739 748 763 752 741 743 742 740 743 748 747 744 741 743 750 748 738 739 743 743 747 748 750 757 759 760 766 763 758 773 775 755 747 750 748 750 749 746 748 751 752 752 753 752 751 751
774 772 770 769 767 767 765 764 763 759 757 756 754 755 752 751 750 755 777 782 748 726 727 725 723 722 720 722 723 724 722 722 730 726 716 721 724 727 738 738 738 743 739 744 755 748 740 738 734 735 741 743 740 736 736 741 745 739 737 739 738 741 745 746 752 756 760 769 774 767 761 774 779 759 748 749 747 746 745 743 744 746 748 749 750 751 751 753
771 770 769 766 766 765 764 763 759 757 756 754 754 752 750 752 756 772 788 772 744 733 727 725 727 724 723 727 729 726 724 724 724 722 722 725 724 726 730 731 733 739 741 743 745 743 736 731 731 732 734 734 733 734 734 736 738 736 739 741 741 746 746 748 756 757 767 780 775 766 763 772 781 766 751 751 748 742 742 745 746 745 748 748 749 752 752 753
769 768 766 764 763 764 764 760 755 755 755 754 754 751 751 758 767 784 783 755 742 738 728 729 729 723 725 730 732 729 726 726 723 726 730 728 730 733 733 736 738 742 748 747 744 743 737 734 734 729 726 728 731 734 733 732 734 737 743 746 750 758 755 758 764 764 779 788 774 767 763 768 781 770 753 751 748 742 741 743 746 747 750 750 750 752 752 752
766 764 764 762 760 761 760 756 753 755 755 754 754 751 758 771 778 782 767 746 746 741 730 732 729 724 727 729 730 729 728 728 724 727 733 733 736 738 738 741 743 751 760 756 751 748 740 736 734 729 725 726 732 738 739 735 735 740 746 751 762 774 775 777 780 779 786 783 772 768 763 768 778 765 753 753 748 744 742 740 742 746 749 750 751 752 752 753
763 760 759 758 756 755 754 753 754 755 755 754 755 755 765 780 780 770 760 751 747 737 730 732 728 725 728 731 732 727 727 730 725 726 729 731 738 738 736 735 734 746 757 757 756 754 748 741 734 733 730 725 729 741 747 744 741 744 748 754 766 781 790 794 794 793 790 779 771 767 764 773 777 761 752 753 749 748 746 742 743 744 748 751 751 752 753 755
759 757 755 754 752 750 749 752 753 754 755 754 756 762 773 782 773 761 759 753 741 733 732 733 730 728 728 733 731 724 729 731 723 726 730 732 741 743 739 737 733 738 746 753 757 756 759 756 739 735 734 727 728 734 739 741 741 743 745 751 759 768 781 789 789 789 787 781 774 769 769 777 776 762 754 751 751 753 751 749 749 748 749 751 753 754 756 758
755 754 752 749 748 746 746 750 751 753 755 755 760 770 776 776 768 760 757 748 740 737 734 731 732 734 733 732 726 718 725 730 723 726 731 734 741 741 738 736 733 735 744 755 757 753 759 757 738 730 729 725 728 729 728 736 745 746 746 752 757 754 760 774 781 780 780 782 779 773 773 773 766 756 752 751 753 756 756 756 755 756 755 754 757 760 760 761
752 750 748 746 743 742 744 747 748 751 754 756 765 773 771 765 758 755 749 741 740 740 739 738 735 737 740 736 729 722 721 726 726 729 733 733 736 736 733 729 728 730 737 748 753 753 758 754 736 730 729 725 727 727 725 734 745 747 749 753 752 746 748 765 781 781 779 785 784 777 775 771 764 757 753 753 756 759 762 761 760 763 762 760 762 764 765 765
749 746 745 742 738 739 742 744 746 749 753 759 767 769 764 756 749 746 742 738 739 738 744 751 741 736 743 742 737 732 728 727 728 732 738 738 737 738 734 727 722 723 726 734 744 749 752 752 740 733 735 730 725 725 725 726 733 743 750 746 744 748 750 758 776 785 788 791 785 778 777 776 776 772 764 762 764 765 767 766 764 767 767 767 768 768 769 770
748 746 742 736 733 736 739 742 745 748 753 761 768 765 759 752 743 740 739 737 739 740 746 754 742 733 741 744 742 738 735 736 734 734 739 740 740 740 736 729 722 721 721 724 735 741 744 752 747 737 738 733 724 728 734 730 727 734 739 736 741 756 761 763 774 784 790 795 788 780 782 782 781 778 772 771 770 769 771 770 770 771 770 769 771 772 772 772
749 748 741 732 730 732 737 741 743 747 755 764 770 764 755 750 742 737 738 738 740 743 746 747 739 733 735 738 741 739 736 737 735 733 738 743 743 739 734 731 726 724 721 720 731 739 742 754 755 742 738 736 732 739 750 749 737 731 734 737 743 752 759 764 770 775 782 792 793 787 788 786 778 773 772 772 769 766 769 772 773 773 772 770 770 771 771 770
750 748 740 733 732 733 735 740 744 751 758 762 764 760 752 748 742 736 736 736 737 739 741 739 735 735 734 731 734 735 733 733 731 734 741 746 745 741 734 729 729 728 724 723 732 739 744 754 757 748 740 743 748 751 755 756 750 745 746 747 747 751 758 762 767 770 773 784 793 793 794 789 775 769 770 769 767 766 765 769 772 772 772 771 770 770 770 770
752 750 741 734 735 734 735 743 748 752 757 759 757 755 750 747 742 737 734 734 735 732 731 730 730 732 733 730 730 730 730 731 729 733 741 744 745 744 737 730 729 729 727 731 737 740 745 752 755 754 750 752 755 750 747 748 748 750 752 750 749 752 758 766 775 775 769 775 785 787 792 789 774 768 769 765 765 766 764 766 771 772 772 772 772 771 770 770
754 751 740 734 737 735 737 747 753 753 754 754 752 749 747 743 741 739 734 732 732 728 723 724 725 727 728 727 726 726 728 730 729 731 738 741 742 741 735 730 729 728 730 740 744 740 743 749 753 757 755 754 753 748 745 744 742 745 750 751 752 753 755 765 776 775 771 777 781 780 788 785 771 768 768 764 762 763 764 766 770 773 773 772 773 772 770 769
755 750 738 734 738 735 739 751 758 756 752 748 746 744 742 742 741 739 735 733 730 725 723 725 726 726 726 725 725 727 729 730 729 732 735 738 739 735 730 729 731 732 735 742 744 740 743 751 757 759 755 749 746 744 743 743 744 750 755 755 756 757 755 758 765 766 769 777 780 783 792 785 770 768 769 766 765 765 766 767 769 773 774 773 774 773 771 770
756 753 743 739 738 735 745 758 759 756 751 746 745 744 741 739 738 737 736 734 731 726 726 729 728 727 728 727 726 728 732 733 734 735 735 737 737 731 727 728 732 736 738 740 741 740 747 757 761 764 767 761 755 753 754 753 755 759 762 760 760 759 757 758 763 765 769 776 775 780 791 785 772 770 769 766 766 768 770 770 770 772 773 773 774 774 773 773
757 755 749 746 743 743 754 760 754 751 750 748 748 746 742 739 734 732 734 735 733 732 734 735 731 729 731 730 730 733 735 736 739 741 739 737 734 731 730 731 732 736 738 737 736 738 749 759 760 765 776 778 774 773 772 769 766 764 763 763 763 762 761 763 767 768 773 778 774 776 785 781 772 770 770 768 767 770 771 771 772 773 773 774 774 775 775 775
759 760 758 755 752 751 756 755 750 750 752 751 750 746 745 743 735 729 731 736 736 735 739 741 734 733 736 734 738 746 745 741 742 746 748 745 740 737 736 734 734 737 737 736 736 740 752 760 760 762 769 773 774 774 770 768 769 768 766 764 766 768 764 765 771 773 775 777 776 776 778 777 774 774 774 771 769 770 771 771 772 773 773 773 773 774 775 776
763 768 772 770 764 761 760 755 753 754 752 751 751 748 746 746 741 734 733 737 739 737 742 747 742 743 747 743 746 757 757 752 750 751 755 753 746 742 740 737 737 738 737 737 738 743 754 762 763 764 766 768 770 770 768 768 770 771 769 769 771 770 765 766 772 775 775 777 781 781 779 780 784 784 781 776 772 771 772 772 772 773 773 774 774 775 776 777
771 774 776 775 775 775 771 763 759 758 753 750 751 752 750 749 748 747 742 739 740 740 745 754 755 755 757 752 754 764 764 760 760 761 761 759 752 747 744 741 741 740 739 741 741 745 755 762 763 765 768 770 769 768 769 770 772 774 774 773 773 770 769 771 775 776 774 778 784 788 788 790 793 792 788 784 780 777 775 773 773 773 774 776 778 780 781 781
779 780 778 775 777 780 775 766 760 759 757 754 754 755 757 757 756 756 751 746 749 750 751 761 765 762 763 759 760 770 772 769 771 771 767 765 761 756 754 751 748 745 743 746 748 750 757 763 764 764 769 771 768 769 771 772 774 776 778 779 776 773 773 774 779 780 779 783 790 792 793 796 797 795 791 788 787 782 778 776 776 776 775 776 778 780 781 783
785 786 784 780 779 777 772 767 763 763 763 761 760 760 760 762 760 758 756 755 760 761 758 765 769 766 766 766 766 773 777 775 777 775 771 771 768 762 761 761 757 752 749 751 753 753 757 765 766 765 771 774 770 771 774 775 776 777 781 784 780 776 778 779 783 783 783 791 796 791 791 796 797 796 794 792 790 786 783 783 783 783 781 779 778 779 779 782
788 788 787 785 783 779 776 773 769 770 773 771 768 765 763 764 763 761 761 761 763 766 765 767 770 769 768 768 769 773 774 772 773 772 770 771 769 764 763 762 760 758 756 755 757 755 758 765 768 768 775 778 774 773 774 774 776 778 783 787 783 780 785 789 790 788 787 792 793 788 792 800 799 797 796 795 793 791 791 791 789 788 787 785 784 783 782 783
788 787 787 786 785 783 782 779 775 778 782 780 773 768 767 767 764 762 765 765 764 765 767 767 768 770 772 772 771 771 769 767 767 766 765 766 764 762 761 760 760 760 759 759 760 760 760 764 768 772 777 780 779 776 773 774 780 785 789 792 790 788 790 794 799 799 796 794 791 790 797 803 801 799 799 799 799 798 798 797 795 794 791 789 790 790 789 788
Wind_Speed
12 11 11 11 11 11 11 11 11 11 11 11 11 11 11 11 12 12 11 11 11 11 11 12 12 12 12 12 13 13 16 17 17 11 8 11 11 9 10 7 4 5 8 8 6 4 4 4 6 7 2 2 2 2 2 4 2 2 2 3 4 5 5 4 2 1 2 7 9 11 6 3 2 4 2 6 8 8 9 7 5 8 9 11 18 30 33 31
12 11 11 11 11 11 11 10 11 11 11 11 10 11 11 11 11 11 11 11 10 11 11 11 12 12 11 12 13 12 16 17 14 13 15 12 7 10 13 9 6 6 7 7 7 6 3 2 4 2 2 0 2 2 2 2 2 3 3 3 5 5 4 4 2 2 3 6 8 8 6 3 2 2 2 5 4 7 10 5 6 12 12 14 20 26 27 28
12 12 12 12 12 11 11 11 11 11 11 11 11 11 11 10 11 10 10 10 10 11 11 11 12 11 11 12 11 11 14 13 8 10 9 9 11 13 15 12 10 8 8 8 7 7 7 3 5 3 2 2 3 2 2 3 2 3 3 3 5 5 6 5 4 5 6 7 7 6 5 6 4 4 2 4 5 5 8 6 7 12 13 14 14 17 21 22
13 12 12 11 11 11 11 11 11 11 11 11 11 11 11 11 10 10 10 10 10 10 10 11 11 11 11 10 9 11 10 6 3 6 2 4 10 13 17 15 13 12 12 9 7 7 7 5 6 3 1 3 3 2 3 4 3 2 4 5 6 5 6 7 7 6 6 7 6 4 4 6 6 4 1 4 5 1 5 8 11 15 16 16 14 14 17 17
13 12 12 12 12 12 12 11 11 11 11 11 11 11 11 10 10 10 10 9 10 9 10 10 10 9 9 9 8 8 5 2 2 5 3 4 6 10 15 14 13 14 12 9 7 5 6 4 1 1 2 4 3 1 4 6 4 2 4 6 8 6 6 8 7 7 6 6 7 4 2 2 5 4 2 0 2 4 6 8 14 20 19 19 16 14 14 13
13 13 12 12 12 12 12 11 11 11 11 11 11 11 10 10 10 10 9 9 9 9 9 9 9 8 9 9 5 3 1 1 4 5 3 5 5 8 12 14 13 13 13 10 6 3 3 2 2 2 2 3 4 5 5 5 4 3 6 6 9 8 7 8 6 5 4 4 7 4 2 1 3 5 4 2 3 6 4 8 14 17 17 19 17 14 12 11
14 13 13 12 12 12 12 11 11 11 11 11 10 10 10 10 10 10 10 9 9 8 8 8 8 8 8 6 2 2 1 4 9 5 5 5 7 9 11 14 15 15 13 10 6 4 2 2 3 3 2 4 4 6 7 3 5 5 6 7 9 9 9 10 8 6 5 6 7 3 0 1 0 3 2 2 1 3 9 10 13 13 13 16 14 12 11 10
14 13 13 12 12 12 12 12 11 11 12 11 11 10 10 10 10 10 10 9 9 8 7 7 7 7 7 4 1 1 2 7 7 4 6 7 9 11 13 15 16 15 13 13 10 5 2 2 4 3 2 5 4 5 5 2 2 5 7 9 8 8 9 11 8 6 7 6 7 5 3 4 6 3 2 1 3 11 13 12 14 14 13 13 12 11 10 9
14 13 13 12 13 12 12 12 12 12 12 12 11 11 10 10 9 9 9 9 8 8 7 6 7 6 4 3 1 2 3 5 3 4 7 8 10 12 14 14 15 15 14 13 10 5 3 3 5 4 3 5 4 5 3 1 4 6 8 9 8 9 10 10 8 7 6 4 5 6 5 6 7 3 2 1 8 13 13 14 14 14 14 12 11 10 10 10
14 14 13 13 13 12 12 12 12 12 12 12 12 11 11 10 9 9 9 9 8 7 6 5 6 5 4 3 1 0 4 2 3 5 7 9 10 13 15 14 15 16 12 10 10 9 6 6 5 2 3 4 3 5 4 4 4 5 6 7 8 11 10 7 7 7 4 3 5 6 6 7 5 3 2 2 9 15 14 14 12 13 13 11 11 9 9 9
15 14 13 13 12 11 11 12 12 11 12 12 12 11 11 10 10 10 9 9 8 7 5 3 4 3 4 2 2 3 4 3 4 6 5 8 10 12 15 14 15 17 14 8 10 13 10 10 6 2 4 3 2 5 4 4 3 6 7 7 8 7 6 5 4 5 2 3 5 5 5 5 2 3 8 6 8 15 16 14 12 12 11 10 11 8 7 7
15 14 13 12 12 11 11 11 11 11 12 12 12 12 11 10 10 9 9 8 7 5 2 2 2 1 4 1 4 8 5 3 4 5 4 5 7 9 12 13 13 16 15 6 7 13 14 15 8 3 6 2 3 4 4 5 5 8 5 4 8 5 5 7 5 4 2 2 3 2 4 5 3 3 13 11 8 13 16 14 12 11 10 10 10 8 7 6
16 15 14 13 12 11 11 10 10 11 11 12 13 12 11 10 10 9 8 7 5 4 2 2 1 0 2 2 8 11 6 4 4 7 6 5 4 5 10 11 11 13 15 11 11 15 17 17 9 8 7 1 2 3 4 7 4 6 5 1 5 6 6 8 4 5 4 2 2 3 3 7 5 4 14 13 12 14 14 13 11 10 9 9 8 7 7 8
17 16 14 13 12 11 10 9 10 10 11 12 13 12 11 9 9 9 8 6 4 2 1 1 1 1 1 5 11 11 11 10 7 12 10 8 5 5 10 12 12 13 16 17 18 18 19 18 8 5 3 2 2 3 6 6 2 3 4 3 3 2 6 6 4 4 6 3 5 5 4 8 3 8 15 13 14 16 13 12 11 10 9 8 8 7 7 10
19 17 15 13 11 10 10 9 9 10 11 12 12 12 10 8 8 7 6 5 2 2 2 1 3 2 1 7 12 9 8 5 10 18 15 10 7 7 10 14 15 16 19 19 18 18 18 15 6 1 2 2 1 4 5 5 3 2 2 4 3 2 6 8 4 6 7 4 6 7 5 7 3 13 15 13 14 15 14 11 10 10 10 9 7 8 7 8
21 20 17 13 11 9 9 9 9 9 11 12 12 11 9 8 7 5 4 3 2 4 3 1 4 3 1 5 8 7 6 5 11 20 18 11 9 11 13 14 14 15 17 17 14 14 12 7 2 2 1 3 3 3 4 4 5 4 1 3 4 3 4 7 6 7 10 5 4 8 6 4 3 14 16 14 14 14 14 12 12 11 10 11 8 7 9 7
23 22 19 15 12 9 9 8 8 9 10 11 11 9 8 7 5 3 3 1 2 5 5 1 1 2 3 6 6 5 5 7 11 17 18 14 12 14 12 7 9 10 10 10 11 10 6 2 1 1 2 2 2 4 4 3 4 4 2 2 4 5 3 5 8 7 9 9 7 8 8 4 2 11 14 13 14 15 15 14 13 11 9 9 9 8 9 9
24 24 22 17 13 10 9 8 8 9 9 10 9 9 7 6 4 2 1 5 5 2 2 3 2 0 3 6 5 3 3 8 13 14 16 16 15 16 13 7 5 4 1 4 6 4 1 2 1 1 3 4 3 5 2 3 4 3 2 1 4 4 4 6 10 6 7 11 9 7 8 7 1 10 13 12 15 14 14 13 11 11 11 9 9 9 9 9
25 25 24 21 15 11 10 8 9 9 10 9 8 8 7 3 1 2 4 4 4 1 2 3 3 1 2 5 5 5 5 9 12 11 15 17 15 15 13 8 3 3 2 1 4 3 1 1 3 1 3 3 2 5 6 8 7 6 5 4 4 4 4 7 10 6 9 8 7 8 7 5 2 8 10 10 12 10 10 11 9 9 11 10 9 8 9 10
25 24 24 23 18 13 11 10 10 10 10 9 6 5 3 1 2 1 2 3 4 6 5 5 7 5 7 7 6 7 7 8 8 9 17 18 13 8 6 6 2 3 3 3 3 3 3 2 2 4 6 7 8 8 8 8 8 6 2 2 3 2 5 8 8 5 6 7 1 4 6 2 2 4 5 4 6 9 10 10 9 9 9 10 11 10 10 10
24 24 24 23 21 16 11 11 11 10 11 10 7 3 1 1 1 2 2 5 8 10 10 9 11 11 12 11 12 10 6 5 7 8 17 18 10 5 3 3 4 2 4 4 3 2 4 3 7 9 10 10 9 7 7 6 5 1 3 1 4 2 4 7 5 6 4 7 2 1 7 5 4 3 9 8 6 10 12 12 11 11 10 10 11 11 10 8
24 24 23 23 23 18 13 12 12 12 12 10 6 1 4 5 4 5 3 4 8 11 13 12 11 13 15 17 22 16 6 5 7 5 12 13 7 5 3 2 5 4 3 2 1 2 1 4 11 13 10 6 6 4 4 3 1 2 2 1 4 2 4 7 5 7 5 6 1 1 5 5 7 2 8 13 11 10 12 14 14 13 11 9 10 11 10 8
23 23 24 23 23 21 15 12 12 14 12 9 5 5 7 12 12 15 8 3 8 7 10 10 9 9 11 13 18 12 5 5 6 6 10 11 5 5 3 2 5 4 2 3 4 3 2 7 12 12 7 4 4 5 1 2 2 2 1 2 2 3 1 3 6 8 6 3 2 3 2 2 5 5 2 10 12 9 9 11 12 12 13 12 12 12 12 13
23 23 23 22 23 22 16 13 12 11 9 9 10 9 14 19 17 16 7 1 7 6 7 11 9 6 11 11 8 7 6 6 6 6 11 11 4 3 4 4 4 3 4 5 6 5 7 9 7 5 6 8 6 5 2 4 3 3 3 3 3 2 2 4 5 5 6 6 3 5 5 4 3 4 3 2 5 8 7 7 9 9 10 10 11 11 12 14
23 23 22 23 22 21 18 13 7 5 9 11 13 13 19 19 12 7 2 1 4 5 4 7 6 6 13 11 7 7 5 6 7 7 11 13 8 4 3 3 3 4 7 5 4 4 10 11 5 3 5 9 7 5 4 5 0 5 4 6 6 4 4 6 5 4 6 6 3 5 4 5 5 3 4 3 3 8 8 9 12 9 6 7 9 9 9 9
23 22 22 22 22 22 17 7 3 7 10 11 11 13 16 16 10 4 2 3 3 5 3 2 4 7 10 7 6 4 3 5 10 11 14 16 14 7 2 2 2 4 6 4 2 2 7 9 6 5 5 7 7 5 4 5 5 2 5 7 6 5 4 1 3 3 3 1 3 3 5 4 6 5 6 2 6 10 7 8 10 9 8 8 9 9 8 8
23 22 21 21 21 22 13 5 9 10 6 8 11 13 12 14 10 3 2 5 3 4 2 1 1 5 6 6 7 6 3 5 6 9 14 17 13 6 4 4 2 2 3 1 1 2 4 4 5 5 4 5 5 3 5 6 7 3 6 4 5 5 5 4 5 3 2 3 4 4 5 2 4 5 6 0 6 7 7 8 7 7 10 9 9 10 10 11
24 22 21 20 20 19 12 9 12 8 5 11 14 10 11 14 7 2 5 2 3 2 2 1 1 4 4 3 7 7 6 3 2 5 12 20 14 5 5 7 4 4 3 2 2 6 3 3 7 6 4 3 3 5 6 6 4 6 5 2 3 6 6 5 6 3 2 1 4 6 3 2 4 6 5 2 4 5 9 10 9 10 11 11 12 13 12 12
24 22 21 20 19 16 10 9 9 5 7 15 14 10 11 11 4 3 5 1 2 2 1 1 1 3 2 1 5 7 6 2 2 4 6 15 11 5 5 8 5 4 3 5 4 6 4 7 8 7 5 4 6 7 6 7 4 6 3 1 2 2 3 4 6 3 4 4 2 6 1 1 4 5 5 4 2 4 7 7 8 12 14 14 13 13 10 9
23 22 21 20 19 12 8 12 13 6 8 16 15 12 9 6 4 4 1 2 2 2 1 0 0 2 3 3 3 7 6 2 2 1 3 7 7 2 2 2 3 2 2 1 3 5 6 5 4 4 4 6 5 5 5 7 6 2 3 4 5 6 4 3 3 4 4 2 5 7 1 4 1 5 4 2 2 5 4 2 2 7 11 12 10 10 9 9
24 22 20 20 19 11 6 10 9 3 7 17 17 9 5 4 4 4 3 3 2 3 1 1 2 2 5 6 3 5 6 4 2 4 1 3 5 2 2 2 2 2 3 4 3 5 6 2 2 3 4 5 4 0 2 1 2 4 4 4 3 4 5 4 5 4 3 2 6 6 1 7 2 4 5 4 6 5 4 6 4 6 8 7 7 8 8 9
24 22 20 19 19 15 12 11 9 6 12 16 12 5 4 4 1 2 3 3 2 2 0 1 3 2 3 5 5 5 5 4 3 6 5 3 4 5 4 4 3 2 3 3 2 5 5 3 4 4 2 4 4 1 5 5 4 5 4 4 4 2 4 3 3 2 1 4 5 3 4 4 3 5 6 7 8 7 1 8 8 9 9 7 8 7 6 6
24 23 21 19 17 19 20 19 16 14 13 11 6 4 5 4 2 4 3 3 2 2 2 3 4 3 2 2 3 5 5 5 3 6 7 4 4 5 5 5 7 5 2 4 1 3 3 5 5 3 3 1 6 3 2 3 2 3 4 3 4 2 3 1 3 1 1 3 4 1 5 1 4 2 5 6 6 6 4 7 8 9 11 9 8 8 7 6
26 23 20 18 17 20 21 18 16 13 9 5 4 5 5 2 3 4 4 4 4 4 4 3 6 6 2 2 5 6 5 5 5 6 7 4 3 3 4 4 5 6 3 2 1 1 1 4 3 2 3 1 4 5 6 5 2 3 4 5 4 4 4 3 3 2 2 2 3 3 3 2 2 2 6 5 7 8 7 8 9 9 10 10 8 8 9 7
26 21 20 19 19 22 19 14 14 12 4 3 5 4 3 4 3 2 3 3 3 4 4 4 6 5 3 5 6 6 5 3 5 5 5 4 4 5 4 4 5 5 4 2 2 2 3 3 6 4 3 4 5 4 5 6 2 3 2 5 2 4 5 3 3 5 4 1 2 3 1 3 3 4 6 3 8 10 10 10 11 10 8 10 9 8 7 6
26 22 18 15 17 19 15 12 11 10 5 5 4 2 4 4 3 2 2 3 1 4 7 9 5 3 2 4 6 4 2 3 4 2 1 1 2 4 4 5 6 7 6 4 2 1 2 4 7 4 1 4 4 4 5 6 2 1 2 2 4 4 7 4 1 1 4 3 2 1 1 3 2 2 5 5 6 8 9 10 12 10 8 10 9 7 6 6
27 20 12 12 19 18 13 10 10 12 7 5 4 4 4 3 4 3 3 3 3 4 5 5 4 2 2 1 4 4 1 2 3 4 2 3 2 3 3 4 5 8 9 5 2 2 4 2 6 3 2 5 3 1 2 3 5 3 1 3 2 3 4 4 2 2 4 2 4 2 2 1 2 1 5 8 5 5 4 6 11 11 10 10 8 7 6 6
22 14 9 15 19 15 12 9 13 14 6 4 3 4 4 2 3 3 4 5 5 5 3 2 4 2 2 1 3 3 2 3 3 5 3 2 2 3 3 4 3 3 8 6 2 1 4 0 6 3 2 5 5 5 3 4 3 4 3 2 3 3 1 1 2 1 1 2 3 3 0 1 1 3 5 6 4 5 5 5 6 6 9 11 10 8 8 8
11 6 5 9 9 8 15 13 14 9 5 2 3 3 3 3 5 5 5 6 4 3 3 3 4 2 1 3 3 2 3 5 4 4 2 1 2 3 2 2 3 2 3 7 4 1 3 3 4 5 2 3 5 5 3 5 6 3 2 3 2 3 3 2 2 3 3 3 2 2 2 1 3 3 4 3 5 8 7 5 5 3 3 5 8 8 7 8
3 3 3 9 15 7 21 15 9 5 3 3 3 2 3 4 5 6 7 6 4 3 4 4 2 1 2 2 3 2 3 4 4 2 0 1 1 2 3 3 3 3 3 8 5 1 3 3 2 5 5 3 2 2 2 2 4 5 4 2 1 2 1 2 1 1 4 4 2 1 1 3 5 3 3 4 4 6 9 8 5 4 4 4 4 6 6 6
3 3 4 12 15 14 22 10 3 3 2 3 2 3 4 4 5 8 9 7 5 5 5 4 3 2 3 1 1 3 2 4 3 4 2 1 0 1 2 4 4 3 3 7 4 2 2 2 3 2 4 2 2 3 2 2 1 1 1 1 2 3 3 3 1 3 2 4 3 4 2 5 5 3 4 5 5 5 8 10 6 5 6 5 4 4 5 6
3 1 6 16 11 19 17 5 1 2 1 3 3 4 4 4 5 8 9 8 6 6 5 3 3 3 3 2 1 2 1 2 3 4 4 2 1 2 2 6 5 3 4 3 2 1 3 3 3 0 2 2 5 4 2 4 2 3 2 2 2 3 4 5 3 3 1 2 1 4 2 4 5 3 5 4 6 6 8 10 8 5 6 6 5 4 5 6
1 3 9 19 13 12 9 5 1 2 3 4 3 5 5 4 6 6 7 7 6 4 2 1 2 2 1 2 2 2 3 1 1 3 5 5 3 6 4 4 4 4 4 2 2 2 2 4 3 2 4 4 4 2 4 7 6 4 3 4 4 2 1 4 5 3 2 1 1 3 1 4 5 4 2 2 4 6 6 7 8 7 5 6 6 5 5 6
2 4 6 17 17 5 4 2 3 3 4 3 2 4 4 5 6 6 5 5 5 3 1 2 3 3 2 3 3 4 5 2 2 4 2 5 5 8 10 4 3 3 2 2 2 0 1 1 3 3 4 6 6 5 6 6 5 2 2 3 5 5 5 3 1 3 3 2 3 5 2 5 5 3 4 6 8 8 6 5 6 7 6 5 5 5 5 6
3 2 3 10 16 9 3 3 3 2 3 3 2 4 4 4 5 5 2 2 5 5 4 4 6 5 4 4 3 4 7 4 2 5 3 1 2 4 6 4 6 4 2 3 3 3 3 2 3 4 3 0 1 1 2 3 3 2 3 5 4 5 7 4 2 4 2 1 2 5 3 4 3 3 6 7 8 8 6 6 6 5 6 6 5 5 5 5
2 3 3 6 8 6 0 3 2 2 2 2 1 3 3 2 3 1 2 4 5 6 7 7 7 6 5 5 5 6 8 6 4 4 4 4 3 2 2 5 7 5 6 8 5 4 4 2 3 5 6 5 4 4 3 1 2 4 6 7 5 4 5 5 4 3 2 1 2 2 5 3 3 6 5 4 6 7 7 7 7 5 6 7 6 6 5 5
2 2 4 3 4 4 4 5 6 5 4 1 0 3 3 3 4 4 4 4 5 5 6 9 11 8 5 4 6 6 7 6 7 5 4 5 3 3 5 5 6 6 7 6 4 4 5 2 1 5 4 4 5 3 2 2 2 3 6 7 6 5 6 7 5 1 3 4 2 4 1 6 3 7 5 2 2 5 5 6 7 6 5 4 4 5 5 5
3 0 3 3 2 2 3 6 7 7 6 4 3 4 7 7 7 6 4 2 6 6 4 7 12 12 9 6 5 4 6 6 7 6 5 6 4 4 6 5 6 6 5 4 4 4 5 1 1 3 3 2 2 2 4 5 4 4 5 6 5 5 6 6 3 1 4 5 2 0 7 6 2 6 6 6 5 3 4 3 5 5 4 5 5 5 4 3
3 1 3 4 2 1 3 7 7 5 9 8 5 7 10 9 9 8 6 3 6 8 6 5 7 11 12 9 6 4 5 4 4 5 5 6 5 4 5 4 6 7 6 5 4 3 4 1 1 4 4 3 4 5 7 8 6 5 6 5 3 4 6 6 3 3 7 6 4 7 11 6 3 5 5 6 6 4 5 6 6 6 5 6 7 6 5 5
2 1 4 3 2 3 4 7 5 5 9 9 5 7 8 9 9 8 9 8 5 6 6 6 6 8 10 10 9 6 3 3 2 1 3 5 5 3 3 2 3 6 6 4 3 3 3 1 1 4 4 4 4 5 7 7 6 6 7 7 5 5 5 5 3 4 7 6 4 9 11 6 4 4 4 5 5 6 9 10 9 7 6 7 7 5 4 3
4 3 3 1 2 5 5 6 6 5 7 7 6 6 7 8 8 6 7 9 7 5 3 4 6 7 8 10 11 6 3 2 0 3 3 3 3 2 1 1 1 4 5 3 2 3 3 1 1 5 4 3 3 5 6 6 7 7 7 9 8 5 6 5 4 4 4 5 4 7 7 2 5 4 5 6 7 10 10 9 8 8 7 8 8 6 5 3
9 3 3 1 2 6 4 4 7 6 4 6 7 7 8 7 7 5 5 6 7 6 4 4 6 5 6 9 8 5 5 5 5 5 4 4 5 4 3 3 2 1 1 2 2 1 3 3 1 4 3 4 4 4 5 6 6 4 4 5 5 3 8 7 7 8 4 5 5 4 4 3 5 3 7 9 10 11 9 7 6 6 7 8 7 6 7 6
Wind_Direction
326 323 320 318 316 315 314 312 311 311 311 311 310 310 310 312 309 308 309 309 310 308 310 309 306 309 308 310 313 315 316 314 315 304 247 259 267 226 197 187 145 154 187 213 240 280 302 276 261 250 261 325 208 234 246 204 180 126 139 183 227 232 226 220 200 149 290 306 312 310 322 98 25 327 360 61 83 83 57 35 56 54 65 102 120 135 142 143
324 322 317 315 313 312 310 308 307 306 307 307 308 308 309 310 309 310 310 310 313 310 308 306 303 307 311 314 316 318 319 316 308 282 257 259 259 205 200 195 160 163 184 210 232 227 225 262 270 242 146 258 234 228 247 236 177 153 161 199 229 221 234 245 215 293 289 288 303 306 314 22 38 295 353 83 117 97 79 45 69 83 84 96 114 132 139 140
321 319 316 313 313 311 308 307 306 303 304 304 303 305 307 307 307 308 309 309 310 308 303 304 305 307 313 313 316 325 320 322 303 268 265 250 232 208 197 193 183 203 229 234 243 227 215 258 321 341 147 243 258 222 233 262 251 192 174 225 247 225 247 268 240 249 252 266 301 310 327 0 336 316 10 123 137 113 120 133 104 107 117 117 122 134 140 143
321 318 315 313 312 309 307 305 303 302 302 302 301 303 305 304 306 306 306 306 306 308 303 306 309 305 311 311 318 330 322 330 291 257 247 213 220 207 199 196 194 218 236 235 239 233 232 270 324 336 210 247 259 217 215 234 251 216 172 213 241 222 249 263 244 248 258 267 271 273 351 355 313 328 56 147 119 79 184 167 143 139 141 138 141 144 146 149
321 317 314 311 309 306 304 302 300 300 299 298 298 298 302 302 304 305 304 305 304 308 307 306 305 303 307 311 319 324 333 40 265 274 246 206 204 200 201 198 199 217 224 225 232 231 242 256 329 334 240 239 244 218 232 225 214 249 227 227 241 230 246 260 249 251 256 272 276 280 4 317 309 341 318 280 153 218 213 176 151 148 151 149 148 147 146 147
321 318 314 310 307 304 302 302 299 299 297 296 296 298 302 300 300 303 302 304 302 303 306 305 305 309 308 311 309 288 358 119 271 283 242 201 186 191 195 199 201 208 214 217 221 200 209 202 148 200 224 230 217 204 238 229 178 239 263 250 250 239 239 255 253 249 241 263 275 271 226 215 3 335 309 356 248 226 164 145 145 146 149 143 139 140 140 139
321 318 314 311 305 302 302 302 299 298 298 297 296 298 301 302 302 302 301 302 301 302 305 309 312 312 317 322 256 210 168 262 274 260 224 201 180 186 189 195 198 202 208 204 193 174 159 141 183 203 212 241 220 212 241 238 174 207 258 259 252 240 237 249 246 245 246 246 249 229 222 266 356 301 329 46 280 119 106 119 128 130 130 127 127 129 127 130
321 317 314 311 303 302 304 302 299 298 300 300 298 296 298 299 300 301 302 302 301 305 304 310 317 313 330 348 201 231 227 252 269 225 209 203 183 188 190 190 197 201 199 198 189 162 139 197 226 217 213 234 214 225 257 297 219 208 240 253 252 245 238 246 240 234 248 249 243 228 236 243 216 201 73 124 110 104 113 119 121 122 116 118 121 116 114 123
322 317 314 308 302 303 304 302 299 299 302 303 299 298 297 294 295 297 297 298 298 300 300 309 317 317 334 329 274 310 255 241 254 192 195 202 195 193 193 192 196 196 195 203 192 155 165 208 223 205 225 248 229 249 257 270 258 220 229 248 252 253 247 251 252 239 253 258 233 231 245 256 231 163 64 192 124 112 118 120 125 124 119 120 119 116 119 128
324 319 314 306 302 304 303 302 298 299 304 304 302 302 302 302 303 302 297 297 296 294 299 306 313 323 329 304 136 278 270 239 173 182 187 198 199 195 195 197 193 190 195 201 190 189 196 205 213 208 269 278 245 262 238 194 244 256 256 262 249 249 245 241 258 265 288 281 224 219 243 258 247 128 94 234 132 121 119 122 127 123 122 125 122 123 123 131
328 322 315 308 305 305 302 300 297 301 305 303 304 304 303 306 305 304 300 298 297 296 298 307 316 335 329 318 137 221 255 224 188 173 179 196 197 199 195 193 190 192 197 194 203 210 214 231 243 326 281 265 290 296 263 219 283 291 277 280 268 267 262 238 260 274 290 285 229 204 250 269 319 123 153 176 145 129 126 126 127 123 124 127 124 123 126 132
332 323 317 313 309 305 299 296 296 302 305 304 306 305 305 307 307 307 304 300 298 294 285 296 311 354 334 318 210 231 210 184 195 166 171 178 187 204 189 186 193 198 202 198 233 233 235 246 246 246 245 237 324 315 285 282 308 291 285 290 289 335 321 271 274 263 221 273 241 132 321 301 307 179 155 153 149 134 128 129 131 130 131 132 130 131 129 108
337 329 322 317 310 302 295 293 296 301 304 306 306 308 312 316 317 313 308 305 297 280 239 242 226 288 341 254 240 245 245 269 221 181 180 145 139 191 186 192 204 210 213 211 240 251 249 252 234 220 233 175 268 277 301 308 312 293 312 336 307 355 317 261 236 258 254 231 179 99 319 276 282 169 152 148 149 138 129 137 140 138 141 139 136 137 118 86
342 335 328 321 312 304 299 297 298 300 303 305 306 311 320 323 317 311 305 299 292 261 193 143 132 144 160 257 267 273 289 294 226 198 189 159 158 200 202 210 217 225 226 226 246 261 261 267 265 225 238 176 231 300 326 326 334 306 328 356 360 346 285 264 202 239 267 219 142 121 239 258 266 147 158 156 152 143 138 148 149 149 150 143 139 135 117 116
349 342 335 327 319 313 310 306 302 302 303 304 308 316 322 321 314 313 308 291 269 185 182 189 196 186 350 277 281 292 296 281 206 203 190 173 190 219 223 221 224 231 233 236 248 261 265 277 292 163 287 298 36 4 334 333 338 348 346 325 335 236 271 294 266 198 224 239 136 147 233 270 185 159 168 161 154 145 141 155 157 157 152 141 143 134 126 140
356 351 345 335 329 322 314 312 309 307 306 306 312 321 320 314 316 317 311 295 236 175 165 198 209 188 353 280 292 303 266 205 198 200 192 189 203 218 231 234 238 237 235 239 251 268 276 282 260 168 296 326 49 55 5 358 336 344 62 270 282 262 289 309 288 210 205 227 160 177 217 293 183 173 172 159 157 146 143 162 165 161 154 145 147 142 141 149
359 357 352 342 333 327 320 317 315 309 309 312 317 321 312 303 303 295 311 353 156 173 174 229 262 197 260 278 298 294 235 200 200 197 196 207 215 223 231 239 243 236 240 254 263 279 297 302 229 226 10 3 78 85 34 346 304 317 358 275 255 239 260 289 287 253 197 197 208 202 205 263 259 173 167 159 160 152 152 168 167 157 151 148 148 151 155 155
1 359 357 350 337 330 329 325 321 316 315 322 323 315 297 285 278 261 131 130 128 137 222 279 315 236 262 271 280 274 212 199 206 203 207 211 214 224 224 224 225 209 293 307 278 281 316 325 35 51 349 358 55 91 108 237 213 250 275 279 278 260 239 247 270 267 171 187 207 188 205 253 262 153 165 172 168 162 160 161 157 152 148 151 151 156 164 164
1 359 359 355 343 332 333 329 326 323 322 328 325 308 293 278 256 151 134 138 126 119 259 232 187 165 268 250 253 277 254 210 203 204 211 208 208 219 223 234 228 135 100 359 297 284 183 318 26 82 288 286 230 159 189 224 213 229 236 195 236 277 271 259 272 259 151 163 195 169 189 247 215 167 179 185 170 157 151 144 145 153 151 152 156 163 170 172
359 359 358 357 350 336 329 330 328 325 328 333 330 315 300 17 44 62 158 188 206 221 239 206 188 235 284 281 286 299 279 224 202 201 208 205 198 202 215 229 211 126 152 168 249 287 129 163 255 219 223 226 231 211 208 238 234 226 201 192 248 293 306 301 308 305 130 125 209 161 131 111 251 182 151 145 146 146 148 147 152 159 159 160 164 169 173 176
355 356 356 356 353 341 326 326 325 322 329 330 329 331 249 186 95 321 268 231 233 227 239 225 198 231 259 269 281 296 310 232 208 203 205 201 182 170 218 201 166 217 234 178 209 320 100 180 239 228 218 218 230 226 215 235 242 222 91 348 310 4 298 291 307 330 62 103 343 7 116 146 230 157 126 126 151 169 164 158 163 167 168 170 168 167 171 173
351 353 353 353 352 347 330 321 319 320 325 322 316 277 245 247 242 300 310 272 259 219 226 238 217 239 252 257 266 270 299 246 224 223 201 189 168 176 229 179 160 226 259 137 161 338 77 228 243 237 223 219 252 251 220 222 240 351 54 47 310 303 294 296 307 337 27 96 212 239 124 194 248 239 143 153 170 189 179 167 167 168 167 172 172 167 167 163
347 347 349 350 350 347 334 317 318 320 321 315 283 231 281 298 299 308 314 292 284 229 211 231 220 242 249 255 260 244 234 231 219 236 195 171 167 177 179 183 185 225 256 159 183 193 212 239 242 237 205 171 251 247 178 44 30 307 319 104 276 276 319 306 311 336 3 50 152 139 73 272 278 332 135 167 174 184 188 176 165 167 171 175 175 171 169 164
345 343 345 345 345 347 337 320 318 320 327 314 280 278 319 327 317 310 310 223 290 271 214 219 207 225 237 241 245 208 206 215 200 221 191 166 151 160 173 187 178 235 244 199 180 191 240 251 257 257 197 172 205 231 135 68 11 287 231 180 218 242 218 251 287 335 352 351 32 79 27 322 341 15 326 234 171 171 182 172 168 182 180 169 171 176 175 167
344 341 340 341 342 343 337 323 314 340 340 304 280 311 338 339 328 299 288 64 294 285 238 217 195 225 237 225 211 203 196 206 206 196 179 171 162 154 187 178 159 226 239 223 190 215 252 255 262 272 208 176 179 208 180 133 82 310 260 205 204 197 218 264 311 18 29 351 331 73 52 296 330 4 283 300 158 176 183 179 180 185 177 164 172 180 177 166
343 339 338 337 337 338 337 325 309 342 326 286 287 332 341 336 328 243 178 36 307 274 259 191 169 212 229 202 180 181 150 217 215 181 173 181 178 162 163 193 194 218 216 220 211 223 258 245 214 194 180 161 158 194 206 145 117 303 251 198 175 154 158 195 22 55 78 286 292 78 120 255 321 326 280 272 169 181 187 197 191 174 175 181 178 178 173 165
341 339 336 333 334 338 337 302 308 323 304 287 318 336 335 335 326 217 117 29 303 260 205 208 208 184 201 193 163 144 176 239 206 175 179 185 181 155 177 217 234 219 197 82 348 268 274 252 186 153 127 129 132 198 222 143 120 229 251 190 145 126 125 123 94 81 221 243 320 15 101 149 308 285 276 172 148 181 200 212 209 184 187 182 174 182 175 169
338 337 335 329 331 333 321 295 305 307 296 324 334 327 328 336 322 167 76 40 267 273 149 215 245 168 196 205 157 168 218 212 133 218 192 180 177 143 197 222 186 200 210 104 272 270 269 228 191 157 111 123 171 215 204 136 136 238 239 188 175 155 147 134 104 76 344 37 325 323 51 83 282 277 300 31 119 195 214 205 195 191 191 180 178 187 181 173
333 333 331 324 323 323 317 297 286 282 329 346 349 330 328 339 340 81 74 133 269 320 168 178 171 180 227 173 166 208 234 138 147 252 178 170 179 141 193 221 178 201 231 142 198 261 254 219 197 151 128 182 217 224 178 140 206 244 184 108 359 74 101 97 101 92 41 61 258 278 337 100 273 291 316 354 46 225 221 203 194 189 186 182 181 182 172 161
330 328 327 322 317 317 317 294 274 270 345 353 348 334 338 3 55 70 59 239 268 276 226 99 170 164 161 156 190 227 233 206 163 167 108 165 187 142 183 215 133 179 282 80 186 254 274 243 190 145 163 188 198 212 184 168 202 217 88 49 20 15 12 43 74 87 67 21 253 255 198 113 281 290 274 284 284 232 193 121 218 184 172 172 171 167 157 152
326 323 321 315 308 303 299 289 273 253 341 342 341 343 10 32 65 102 210 245 275 275 324 323 253 172 154 167 190 221 231 251 144 130 157 177 167 185 313 343 43 60 357 352 308 294 325 328 216 230 198 156 127 222 274 209 154 100 81 62 47 353 1 18 4 44 90 258 257 259 93 101 128 273 266 283 292 263 158 123 141 151 146 145 143 149 154 159
323 319 313 306 298 279 253 255 268 287 312 326 338 7 62 47 31 182 238 307 322 249 236 288 262 229 185 187 194 198 206 240 175 152 185 177 156 189 207 204 185 53 338 288 299 327 332 276 260 291 249 143 112 18 326 340 32 83 97 74 76 3 10 13 326 10 178 248 255 269 66 91 229 243 256 293 313 307 148 130 136 134 127 117 119 129 135 142
322 317 310 301 289 269 258 262 275 289 303 319 349 40 80 86 235 222 240 287 249 239 327 333 297 262 208 208 226 201 186 217 205 166 186 171 152 200 228 213 168 125 193 218 249 342 324 306 310 331 303 146 117 116 264 289 19 113 155 116 109 106 69 299 276 309 260 258 257 292 78 56 279 260 268 302 348 354 34 95 107 110 111 109 112 113 106 108
324 319 312 301 285 269 264 266 269 274 293 329 38 63 91 134 243 234 236 258 264 297 336 328 296 295 313 301 248 205 183 222 203 167 177 155 131 204 251 249 179 133 133 182 212 167 113 320 289 202 259 217 136 160 178 170 137 179 170 130 137 149 141 196 216 187 224 257 291 331 63 169 217 234 279 325 45 57 60 70 74 82 95 102 97 92 92 91
325 320 312 298 280 269 260 254 255 252 261 37 67 84 138 201 244 235 233 246 270 305 320 305 286 286 319 311 266 211 171 216 221 170 162 160 171 198 204 223 206 147 115 154 225 187 146 247 256 246 233 174 159 189 158 110 57 264 120 96 159 183 153 159 175 173 176 131 312 314 232 208 199 234 280 12 80 87 86 83 76 69 73 85 79 72 81 84
326 322 316 294 274 267 254 244 239 213 171 84 81 149 197 211 225 210 229 239 270 331 329 322 297 204 210 304 292 266 155 175 220 204 215 172 188 216 211 209 196 162 144 156 206 186 127 249 277 318 279 191 186 195 158 125 144 273 57 108 223 178 131 119 197 187 92 91 276 264 219 292 330 296 324 24 89 102 106 113 106 96 82 80 81 75 72 73
328 325 315 279 269 260 245 239 206 173 140 88 117 204 220 217 225 228 267 299 331 339 336 324 298 209 168 274 309 323 336 236 200 186 265 318 303 286 284 259 220 181 169 151 172 183 137 259 292 4 36 283 293 103 136 137 129 119 165 205 181 72 83 106 125 1 55 113 271 287 186 298 26 259 331 6 50 72 80 118 118 123 122 109 108 108 98 89
321 322 296 277 273 247 228 217 174 151 107 81 149 228 228 218 239 248 293 312 322 324 322 284 265 243 131 137 302 328 314 268 202 177 208 244 241 286 316 292 294 182 165 134 105 186 120 68 295 341 29 304 340 51 26 337 55 122 174 179 100 88 27 69 120 133 110 169 280 308 234 71 120 228 316 357 80 81 38 50 88 120 133 126 129 131 123 116
316 327 288 306 324 216 197 178 154 130 74 122 188 244 236 252 268 267 280 290 291 288 278 243 235 252 137 157 205 255 245 223 201 189 200 193 235 276 308 306 347 11 124 114 119 193 101 108 272 299 337 330 357 43 31 330 341 22 49 23 48 135 159 162 144 149 145 160 243 312 11 343 234 239 305 299 158 127 98 68 59 63 82 109 126 126 120 117
337 345 252 357 9 177 173 150 131 105 96 173 193 222 256 278 277 276 272 268 265 249 250 239 211 278 272 185 171 213 245 232 206 135 104 248 251 288 325 344 330 302 55 77 88 102 61 96 220 291 332 28 37 27 38 354 334 348 349 345 29 73 109 128 106 100 122 135 174 133 54 280 253 228 251 244 193 143 124 116 106 90 68 56 94 110 111 104
9 3 225 359 11 156 151 120 116 125 145 210 217 222 262 280 275 286 280 269 265 241 230 234 221 208 216 222 208 203 228 252 215 115 93 288 97 139 359 5 322 288 63 55 41 67 73 122 164 297 344 47 220 260 1 5 257 228 255 240 140 116 99 102 39 314 96 126 164 145 150 267 261 228 233 207 170 150 124 120 120 116 110 99 94 109 115 105
32 346 259 348 18 152 140 74 233 125 154 211 213 225 250 267 263 281 284 280 269 238 223 242 262 237 205 213 245 207 198 238 204 128 125 152 178 232 338 16 353 349 82 75 329 182 123 104 97 345 255 223 240 240 46 25 20 114 92 13 52 104 109 120 179 264 36 81 140 111 109 264 261 260 254 211 156 141 126 122 122 119 120 119 114 111 103 97
50 270 290 351 23 145 125 46 217 293 264 216 233 238 236 256 263 278 288 290 277 241 188 32 320 331 348 1 31 43 17 336 169 110 142 154 179 230 268 353 7 15 60 82 300 316 68 79 66 327 292 302 308 318 43 34 41 57 16 7 29 23 76 136 168 174 121 101 103 88 87 259 280 306 276 157 101 94 100 112 121 122 114 110 114 114 104 99
312 262 290 359 17 68 96 93 187 239 259 257 287 257 248 253 251 258 275 305 320 316 67 43 358 1 354 1 55 65 33 31 34 36 115 157 163 203 223 218 118 66 36 172 181 104 35 87 86 54 3 345 348 356 4 9 26 42 314 351 32 25 21 37 71 78 86 190 146 121 171 244 272 331 81 92 78 75 65 65 99 118 117 112 113 112 111 114
328 297 276 347 9 34 102 197 197 209 265 292 287 267 272 263 245 232 220 28 19 20 37 19 11 26 18 8 45 51 43 67 50 8 10 62 113 176 200 153 109 91 94 132 129 109 106 122 109 107 123 157 317 301 316 332 341 336 324 350 19 40 45 48 40 61 84 243 103 118 181 246 288 21 69 87 92 93 91 87 91 105 117 122 123 122 124 133
1 8 327 328 2 33 18 274 1 26 309 313 283 278 289 292 283 258 91 51 34 48 49 19 15 38 23 19 51 34 24 47 60 30 18 6 24 37 37 77 87 87 93 91 84 86 87 77 103 124 148 172 188 215 239 299 3 326 323 344 2 22 52 82 84 81 150 130 31 194 179 135 18 12 42 90 120 123 131 132 126 130 140 144 148 148 145 145
43 22 4 337 327 357 350 342 6 359 322 4 57 318 345 350 336 2 37 39 34 56 61 29 25 37 9 10 67 34 359 33 47 31 6 354 360 9 11 47 69 72 87 83 68 88 85 44 87 117 137 176 181 214 292 15 39 344 335 350 3 17 44 74 78 121 156 98 350 285 105 93 17 343 6 17 119 127 136 144 145 147 146 139 139 141 136 137
41 49 351 350 323 344 345 323 321 332 351 24 48 9 11 21 29 20 356 34 42 36 64 43 30 36 20 18 83 45 352 36 41 8 351 353 352 1 3 12 22 29 55 44 20 88 103 121 194 118 97 96 97 38 28 51 54 39 24 2 4 42 70 86 90 175 133 120 198 204 68 74 325 331 356 352 353 55 100 122 131 122 103 85 67 61 59 62
28 28 330 354 13 257 282 300 301 347 17 19 29 30 26 31 43 33 6 14 30 22 48 66 39 41 34 31 74 67 13 45 35 347 355 357 341 1 18 5 351 1 31 38 11 67 99 159 198 101 73 30 28 40 50 52 44 41 31 4 20 87 100 102 86 77 89 98 145 112 83 67 333 319 326 323 325 1 57 58 60 62 78 96 89 77 61 24
20 345 329 354 3 314 322 339 350 37 28 15 21 32 32 34 38 40 34 38 43 16 34 69 58 47 44 42 59 68 53 89 119 277 336 347 340 6 33 22 336 344 8 32 360 24 76 181 228 86 68 343 353 49 57 59 67 58 25 1 14 57 64 63 41 41 73 78 85 91 80 48 340 322 327 329 336 26 47 43 41 40 49 71 75 71 64 29
345 272 322 12 9 354 1 4 13 40 25 6 10 22 32 35 32 45 45 40 57 51 36 97 84 48 37 39 43 36 2 9 258 245 249 276 297 309 323 325 359 344 348 13 8 16 73 109 351 67 76 302 323 50 48 54 68 56 22 355 351 24 59 57 25 25 102 131 100 74 76 23 305 329 25 34 38 53 51 37 36 35 37 55 58 40 20 340
357 319 343 102 83 9 3 19 25 42 26 350 357 20 34 31 25 58 64 22 33 56 66 101 96 70 45 32 19 342 306 297 289 282 259 243 256 262 259 266 274 288 314 33 40 24 101 102 75 87 93 287 306 57 57 52 46 15 331 317 320 49 80 63 24 12 37 123 119 101 132 211 278 350 60 60 55 61 56 38 34 33 34 47 51 39 24 5